Regional Weather Roundup
Issued by NWS Little Rock, AR

Home | Current Version | Previous Version | Graphics & Text | Print | Product List | Glossary On
Versions: 1 2 3 4 5 6 7 8 9 10 11 12 13 14 15 16 17 18 19 20 21 22 23 24 25 26 27 28 29 30 31 32 33 34 35 36 37 38 39 40 41 42 43 44 45 46 47 48 49 50
000
ASUS44 KLZK 021205
RWRLZK

WEATHER ROUNDUP FOR ARKANSAS
NATIONAL WEATHER SERVICE LITTLE ROCK AR
700 AM CDT SUN AUG 02 2015

NOTE: "FAIR" INDICATES FEW OR NO CLOUDS BELOW 12,000 FEET WITH NO
SIGNIFICANT WEATHER AND/OR OBSTRUCTIONS TO VISIBILITY.

ARZ001-003-010-029-021300-
NORTHWEST ARKANSAS

CITY           SKY/WX    TMP DP  RH WIND       PRES   REMARKS
FAYETTEVILLE   CLEAR     65  65 100 MISG      30.01R
6HR MIN TEMP:  65; 6HR MAX TEMP:  69;

FORT SMITH     CLEAR     73  69  87 CALM      29.97R
6HR MIN TEMP:  72; 6HR MAX TEMP:  78;

HARRISON       CLEAR     68  64  87 E3        30.01R
6HR MIN TEMP:  66; 6HR MAX TEMP:  72;

BENTONVILLE    CLEAR     70  64  83 CALM      30.01R
6HR MIN TEMP:  68; 6HR MAX TEMP:  73;

ROGERS         CLEAR     71  70  96 SE3       30.02R
6HR MIN TEMP:  70; 6HR MAX TEMP:  73; 6HR PCP:  1.00;

SILOAM SPGS    CLEAR     68  61  77 E5        29.99S
6HR MIN TEMP:  66; 6HR MAX TEMP:  72;

HIGHFILL       CLEAR     68  67  96 CALM      30.00S
6HR MIN TEMP:  67; 6HR MAX TEMP:  71;

SPRINGDALE     PTCLDY    68  68 100 CALM      30.03R
$$

ARZ004-005-016-021300-
NORTH CENTRAL ARKANSAS

CITY           SKY/WX    TMP DP  RH WIND       PRES   REMARKS
BATESVILLE     PTCLDY    68  64  88 NW3       29.97S
6HR MIN TEMP:  66; 6HR MAX TEMP:  72;

FLIPPIN        CLEAR     66  63  88 CALM      29.97R
6HR MIN TEMP:  66; 6HR MAX TEMP:  73;

MTN HOME       CLEAR     70  66  87 CALM      29.98S
6HR MIN TEMP:  68; 6HR MAX TEMP:  73;

$$

ARZ040-041-021300-
WEST CENTRAL ARKANSAS

CITY           SKY/WX    TMP DP  RH WIND       PRES   REMARKS
MENA           CLEAR     64  61  88 CALM      30.01R
MOUNT IDA      CLEAR     64  62  93 CALM      29.97R
6HR MIN TEMP:  64; 6HR MAX TEMP:  70;

$$

ARZ009-017-025-026-028-021300-
NORTHEAST ARKANSAS

CITY           SKY/WX    TMP DP  RH WIND       PRES   REMARKS
JONESBORO      CLEAR     71  69  93 CALM      29.96S
6HR MIN TEMP:  68; 6HR MAX TEMP:  72;

NEWPORT        CLEAR     73  73 100 CALM      29.97S
6HR MIN TEMP:  72; 6HR MAX TEMP:  80;

WALNUT RIDGE   PTCLDY    73  70  88 NW3       29.97R
6HR MIN TEMP:  72; 6HR MAX TEMP:  77;

BLYTHEVILLE    CLEAR     74  72  93 CALM      29.97R
6HR MIN TEMP:  72; 6HR MAX TEMP:  77;

$$

ARZ022-023-033-042-044-021300-
CENTRAL ARKANSAS

CITY           SKY/WX    TMP DP  RH WIND       PRES   REMARKS
LITTLE ROCK    PTCLDY    72  68  87 CALM      29.97R
6HR MIN TEMP:  71; 6HR MAX TEMP:  77;

N LITTLE ROCK    N/A     74  68  82 CALM      29.97R
6HR MIN TEMP:  72; 6HR MAX TEMP:  78;

JACKSONVILLE   CLEAR     68  65  89 CALM      29.97R
6HR MIN TEMP:  67; 6HR MAX TEMP:  73;

SEARCY         CLEAR     68  66  93 CALM      29.98R
6HR MIN TEMP:  67; 6HR MAX TEMP:  71;

HOT SPRINGS    PTCLDY    69  64  84 CALM      29.98R
6HR MIN TEMP:  68; 6HR MAX TEMP:  75;

RUSSELLVILLE   CLEAR     67  66  97 CALM      29.97R
6HR MIN TEMP:  66; 6HR MAX TEMP:  71;

$$

ARZ036-021300-
EAST ARKANSAS

CITY           SKY/WX    TMP DP  RH WIND       PRES   REMARKS
WEST MEMPHIS   CLEAR     71  70  96 CALM      29.95S
6HR MIN TEMP:  70; 6HR MAX TEMP:  73;

$$

ARZ050-053-066-070-073-021300-
SOUTHWEST ARKANSAS

CITY           SKY/WX    TMP DP  RH WIND       PRES   REMARKS
ARKADELPHIA    FAIR      67  67 100 CALM      29.98R
6HR MIN TEMP:  66; 6HR MAX TEMP:  71;

CAMDEN         CLEAR     64  63  94 CALM      29.96S
TEXARKANA      CLEAR     68  66  93 CALM      29.97R
6HR MIN TEMP:  66; 6HR MAX TEMP:  72;

EL DORADO      CLEAR     65  63  93 CALM      29.96S
6HR MIN TEMP:  64; 6HR MAX TEMP:  69;

DE QUEEN       CLEAR     65  65 100 CALM      29.96R FOG
6HR MIN TEMP:  65; 6HR MAX TEMP:  69;

$$

ARZ056-057-069-021300-
SOUTHEAST ARKANSAS

CITY           SKY/WX    TMP DP  RH WIND       PRES   REMARKS
PINE BLUFF     CLEAR     68  66  93 CALM      29.97R
6HR MIN TEMP:  67; 6HR MAX TEMP:  73;

STUTTGART      PTCLDY    72  66  83 W5        29.97R
6HR MIN TEMP:  70; 6HR MAX TEMP:  75;

MONTICELLO       N/A     68  67  96 CALM      29.96R
6HR MIN TEMP:  67; 6HR MAX TEMP:  71;


$$





USA.gov is the U.S. government's official web portal to all federal, state and local government web resources and services.